Weather Roundup
Issued by NWS Chicago, IL

Home | Current Version | Previous Version | Text Only | Print | Product List | Glossary On
Versions: 1 2 3 4 5 6 7 8 9 10 11 12 13 14 15 16 17 18 19 20 21 22 23 24 25 26 27 28 29 30 31 32 33 34 35 36 37 38 39 40 41 42 43 44 45 46 47 48 49 50
000
NZUS59 KLOT 261010
HRRLOT

CHICAGO AREA WEATHER ROUNDUP
NATIONAL WEATHER SERVICE CHICAGO/ROMEOVILLE IL
400 AM CST WED NOV 26 2014

NOTE: "FAIR" INDICATES FEW OR NO CLOUDS BELOW 12,000 FEET WITH NO
SIGNIFICANT WEATHER AND/OR OBSTRUCTIONS TO VISIBILITY.

* THESE STATIONS ARE NOT UNDER NWS QUALITY CONTROL. THEY ALSO MAY NOT
  REPORT WEATHER SUCH AS PRECIPITATION OR FOG.

ILZ005-006-012>014-019>023-261100-
NORTHEAST ILLINOIS

CITY           SKY/WX    TMP DP  RH WIND       PRES   REMARKS
OHARE          CLEAR     19  15  84 E8        30.14F WCI   9
MIDWAY         MOCLDY    23  17  78 E6        30.16F WCI  16
AURORA         CLEAR     13   8  81 E3        30.14F HAZE
LANSING*       CLOUDY    23  19  81 CALM      30.17F
JOLIET*        CLEAR     18  16  91 E3        30.15F FOG
WAUKEGAN       CLEAR     11   7  84 CALM      30.14F
DUPAGE AIRPORT CLEAR     15  11  83 CALM      30.13F FOG
WHEELING       CLEAR     19  15  84 E3        30.17F
KANKAKEE*      CLEAR    N/A N/A N/A E7        30.16F
MORRIS*        CLEAR     17  17  97 E5        30.14F FOG     WCI  10
LEWIS AIRPORT* CLEAR     19  18  96 E6        30.14F WCI  10
NORTHERLY IS     N/A     23  18  81 SE3         N/A
$$

WIZ051-052-058>065-066-070>072-261100-
SOUTHEAST WISCONSIN

CITY           SKY/WX    TMP DP  RH WIND       PRES   REMARKS
MILWAUKEE      CLEAR     15  11  83 CALM      30.15F FOG
KENOSHA*       PTCLDY    12  10  92 E3        30.14F FOG
RACINE*        CLEAR     12   9  87 CALM      30.16F
BURLINGTON     LGT SNOW  10   9  94 NW3       30.14F
WAUKESHA       CLEAR     10   9  92 CALM      30.16R FOG
WEST BEND      CLOUDY    19  14  79 CALM      30.15S
$$

INZ001>003-010>013-019-020-261100-
NORTHWEST INDIANA

CITY           SKY/WX    TMP DP  RH WIND       PRES   REMARKS
GARY*          NOT AVBL
MICHIGAN CITY* NOT AVBL
RENSSELAER*    NOT AVBL
VALPARAISO     CLOUDY    23  18  81 E3        30.17F
$$

LMZ740>746-261100-
SOUTHERN LAKE MICHIGAN

STATION/POSITION TIME  SKY/WX   TEMP WIND        PRES    VSBY
                                AIR  DIR/SP/G
                 (UTC)          (F)  (DEG/KT/KT) (MB)    (MI)
HARRISON CRIB    1000            23  100/  5/  6   N/A
BURNHAM HARBOR   1000            23   80/  2/  5   N/A
CALUMET HARBOR   1000            22   40/  1/  2 1020.3F
BURNS HARBOR     NOT AVBL
MICHIGAN CITY    1000            23   80/  4/  6   N/A
$$

ABBREVIATIONS USED IN REMARKS
   TC - TEMPERATURE IN CELSIUS
  WCI - WIND CHILL INDEX
   HX - HEAT INDEX
  VSB - VISIBILITY
$$


USA.gov is the U.S. government's official web portal to all federal, state and local government web resources and services.